| time (UTC) | temp C | wind direction | speed KPH | gust KPH | rain 1hr cm | rain 24hr cm | rain mn cm | humidity % | barometer mb |
| 20260510191547 | 25 | 103 | 1.6 | 11.3 | 0.00 | 0.00 | 0.00 | 73 | 1016.7 |
| 20260510190040 | 26 | 49 | 3.2 | 9.7 | 0.00 | 0.00 | 0.00 | 74 | 1016.8 |
| 20260510184537 | 25 | 42 | 1.6 | 8.0 | 0.00 | 0.03 | 0.00 | 74 | 1016.9 |
| 20260510183048 | 25 | 28 | 3.2 | 8.0 | 0.00 | 0.03 | 0.00 | 75 | 1017.1 |
| 20260510181543 | 24 | 186 | 1.6 | 9.7 | 0.00 | 0.03 | 0.00 | 78 | 1017.3 |
| 20260510180039 | 23 | 0 | 1.6 | 8.0 | 0.00 | 0.03 | 0.00 | 78 | 1017.6 |
| 20260510174543 | 23 | 248 | 0.0 | 6.4 | 0.00 | 0.03 | 0.00 | 80 | 1017.9 |
| 20260510173042 | 23 | 276 | 3.2 | 11.3 | 0.00 | 0.03 | 0.00 | 80 | 1018.0 |
| 20260510171544 | 23 | 286 | 1.6 | 11.3 | 0.00 | 0.03 | 0.00 | 81 | 1018.3 |
| 20260510170041 | 23 | 0 | 1.6 | 6.4 | 0.00 | 0.03 | 0.00 | 81 | 1018.3 |
| 20260510164545 | 22 | 315 | 0.0 | 6.4 | 0.00 | 0.13 | 0.00 | 82 | 1018.3 |
| 20260510163038 | 22 | 299 | 0.0 | 6.4 | 0.00 | 0.13 | 0.00 | 83 | 1018.2 |
| 20260510161538 | 22 | 251 | 3.2 | 9.7 | 0.00 | 0.13 | 0.00 | 84 | 1018.2 |
| 20260510160048 | 22 | 0 | 3.2 | 11.3 | 0.00 | 0.13 | 0.00 | 84 | 1018.2 |
| 20260510154543 | 22 | 309 | 1.6 | 6.4 | 0.00 | 0.28 | 0.00 | 85 | 1018.2 |
| 20260510153042 | 22 | 312 | 0.0 | 8.0 | 0.00 | 0.28 | 0.00 | 86 | 1018.2 |
| 20260510151543 | 21 | 0 | 0.0 | 4.8 | 0.00 | 0.28 | 0.00 | 87 | 1018.1 |
| 20260510150041 | 21 | 0 | 0.0 | 3.2 | 0.00 | 0.28 | 0.00 | 87 | 1018.2 |
| 20260510144543 | 21 | 254 | 1.6 | 6.4 | 0.00 | 0.48 | 0.00 | 87 | 1018.1 |
| 20260510143040 | 21 | 0 | 0.0 | 4.8 | 0.00 | 0.48 | 0.00 | 87 | 1018.1 |
| 20260510141539 | 21 | 38 | 0.0 | 4.8 | 0.00 | 0.48 | 0.00 | 87 | 1018.1 |
| 20260510140037 | 20 | 38 | 0.0 | 4.8 | 0.00 | 0.48 | 0.00 | 86 | 1018.0 |
| 20260510134539 | 20 | 38 | 0.0 | 6.4 | 0.00 | 1.47 | 0.00 | 86 | 1017.8 |
| 20260510133059 | 20 | 0 | 0.0 | 1.6 | 0.00 | 1.47 | 0.00 | 85 | 1017.7 |
| 20260510131540 | 19 | 0 | 0.0 | 3.2 | 0.00 | 1.47 | 0.00 | 84 | 1017.7 |
| 20260510130041 | 19 | 0 | 0.0 | 3.2 | 0.00 | 1.47 | 0.00 | 84 | 1017.5 |
| 20260510124541 | 18 | 0 | 0.0 | 1.6 | 0.00 | 1.47 | 0.00 | 84 | 1017.5 |
| 20260510123054 | 18 | 0 | 0.0 | 1.6 | 0.00 | 1.47 | 0.00 | 84 | 1017.1 |
| 20260510121532 | 18 | 0 | 0.0 | 0.0 | 0.00 | 1.47 | 0.00 | 85 | 1017.0 |
| 20260510120040 | 18 | 0 | 0.0 | 0.0 | 0.00 | 1.47 | 0.00 | 85 | 1016.9 |
| 20260510114540 | 17 | 0 | 0.0 | 1.6 | 0.00 | 1.47 | 0.00 | 85 | 1016.6 |
| 20260510113044 | 17 | 0 | 0.0 | 1.6 | 0.00 | 1.47 | 0.00 | 84 | 1016.1 |
| 20260510111540 | 17 | 0 | 0.0 | 0.0 | 0.00 | 1.47 | 0.00 | 84 | 1015.8 |
| 20260510110042 | 17 | 0 | 0.0 | 0.0 | 0.00 | 1.47 | 0.00 | 84 | 1015.5 |
| 20260510104540 | 17 | 0 | 0.0 | 0.0 | 0.00 | 1.47 | 0.00 | 84 | 1015.3 |
| 20260510103042 | 17 | 0 | 0.0 | 0.0 | 0.00 | 1.47 | 0.00 | 84 | 1015.3 |
| 20260510101540 | 18 | 0 | 0.0 | 0.0 | 0.00 | 1.47 | 0.00 | 84 | 1015.3 |
| 20260510100039 | 18 | 0 | 0.0 | 0.0 | 0.00 | 1.47 | 0.00 | 84 | 1015.2 |
| 20260510094533 | 18 | 0 | 0.0 | 0.0 | 0.00 | 1.47 | 0.00 | 84 | 1015.0 |
| 20260510093039 | 18 | 0 | 0.0 | 0.0 | 0.00 | 1.47 | 0.00 | 84 | 1014.9 |
| 20260510091539 | 18 | 0 | 0.0 | 0.0 | 0.00 | 1.47 | 0.00 | 84 | 1015.1 |
| 20260510090100 | 18 | 0 | 0.0 | 0.0 | 0.00 | 1.47 | 0.00 | 84 | 1015.0 |
| 20260510084540 | 18 | 0 | 0.0 | 0.0 | 0.00 | 1.47 | 0.00 | 84 | 1014.7 |
| 20260510083041 | 18 | 0 | 0.0 | 0.0 | 0.00 | 1.47 | 0.00 | 84 | 1014.6 |
| 20260510081545 | 18 | 0 | 0.0 | 3.2 | 0.00 | 1.47 | 0.00 | 84 | 1014.5 |
| 20260510080040 | 17 | 0 | 0.0 | 1.6 | 0.00 | 1.47 | 0.00 | 84 | 1014.2 |
| 20260510074542 | 18 | 0 | 0.0 | 3.2 | 0.00 | 1.52 | 0.00 | 84 | 1013.8 |
| 20260510073054 | 18 | 223 | 0.0 | 3.2 | 0.00 | 1.52 | 0.00 | 84 | 1013.5 |
| 20260510071535 | 18 | 0 | 0.0 | 3.2 | 0.00 | 1.52 | 0.00 | 84 | 1013.6 |
| 20260510070045 | 18 | 0 | 0.0 | 3.2 | 0.00 | 1.52 | 0.00 | 84 | 1013.7 |
| 20260510064549 | 18 | 0 | 0.0 | 0.0 | 0.00 | 1.52 | 0.00 | 84 | 1013.8 |
| 20260510063046 | 18 | 0 | 0.0 | 0.0 | 0.00 | 1.52 | 0.00 | 84 | 1013.6 |
| 20260510061540 | 18 | 0 | 0.0 | 1.6 | 0.00 | 1.52 | 0.00 | 84 | 1014.0 |
| 20260510060033 | 18 | 0 | 0.0 | 1.6 | 0.00 | 1.52 | 0.00 | 84 | 1014.3 |
| 20260510054540 | 18 | 0 | 0.0 | 1.6 | 0.00 | 1.52 | 0.00 | 84 | 1014.4 |
| 20260510053041 | 17 | 0 | 0.0 | 0.0 | 0.00 | 1.52 | 0.00 | 84 | 1014.2 |
| 20260510051543 | 18 | 0 | 0.0 | 0.0 | 0.00 | 1.52 | 0.00 | 84 | 1014.2 |
| 20260510050037 | 18 | 0 | 0.0 | 3.2 | 0.00 | 1.52 | 0.00 | 84 | 1014.2 |
| 20260510044548 | 18 | 174 | 0.0 | 4.8 | 0.00 | 1.52 | 1.52 | 84 | 1014.6 |
| 20260510043041 | 18 | 174 | 1.6 | 4.8 | 0.00 | 1.52 | 1.52 | 84 | 1014.8 |
| 20260510041541 | 18 | 0 | 0.0 | 0.0 | 0.00 | 1.52 | 1.52 | 84 | 1014.6 |
| 20260510040039 | 18 | 0 | 0.0 | 0.0 | 0.00 | 1.52 | 1.52 | 84 | 1014.6 |
| 20260510034538 | 18 | 0 | 0.0 | 0.0 | 0.00 | 1.52 | 1.52 | 85 | 1015.0 |
| 20260510033045 | 18 | 0 | 0.0 | 0.0 | 0.00 | 1.52 | 1.52 | 85 | 1015.0 |
| 20260510031550 | 18 | 0 | 0.0 | 0.0 | 0.00 | 1.52 | 1.52 | 84 | 1014.8 |
| 20260510030039 | 18 | 0 | 0.0 | 4.8 | 0.00 | 1.52 | 1.52 | 84 | 1014.8 |
| 20260510024538 | 18 | 0 | 0.0 | 6.4 | 0.00 | 1.52 | 1.52 | 84 | 1014.8 |
| 20260510023038 | 18 | 174 | 3.2 | 8.0 | 0.00 | 1.52 | 1.52 | 84 | 1015.1 |
| 20260510021541 | 18 | 170 | 1.6 | 6.4 | 0.00 | 1.52 | 1.52 | 85 | 1014.6 |
| 20260510020040 | 18 | 0 | 0.0 | 4.8 | 0.00 | 1.52 | 1.52 | 85 | 1014.3 |
| 20260510014537 | 18 | 170 | 3.2 | 8.0 | 0.00 | 1.52 | 1.52 | 85 | 1014.4 |
| 20260510013041 | 19 | 170 | 3.2 | 8.0 | 0.00 | 1.52 | 1.52 | 85 | 1014.5 |
| 20260510011539 | 19 | 169 | 3.2 | 8.0 | 0.00 | 1.52 | 1.52 | 85 | 1014.2 |
| 20260510010039 | 19 | 174 | 0.0 | 4.8 | 0.00 | 1.52 | 1.52 | 85 | 1013.9 |
| 20260510004540 | 19 | 0 | 0.0 | 3.2 | 0.00 | 1.52 | 1.52 | 86 | 1013.9 |
| 20260510003046 | 19 | 0 | 1.6 | 8.0 | 0.00 | 1.52 | 1.52 | 86 | 1014.0 |
| 20260510001547 | 20 | 0 | 0.0 | 6.4 | 0.00 | 1.52 | 1.52 | 86 | 1013.9 |
| 20260510000039 | 20 | 0 | 0.0 | 6.4 | 0.00 | 1.52 | 1.52 | 86 | 1013.6 |
| 20260509234539 | 20 | 171 | 1.6 | 6.4 | 0.00 | 1.52 | 1.52 | 86 | 1013.6 |
| 20260509233037 | 20 | 171 | 3.2 | 8.0 | 0.00 | 1.52 | 1.52 | 87 | 1013.6 |
| 20260509231542 | 20 | 171 | 1.6 | 8.0 | 0.00 | 1.52 | 1.52 | 87 | 1013.5 |
| 20260509230040 | 20 | 186 | 1.6 | 4.8 | 0.00 | 1.52 | 1.52 | 87 | 1013.3 |
| 20260509224549 | 20 | 186 | 3.2 | 6.4 | 0.00 | 1.80 | 1.52 | 87 | 1013.2 |
| 20260509223042 | 20 | 187 | 3.2 | 6.4 | 0.00 | 1.80 | 1.52 | 87 | 1012.8 |
| 20260509221554 | 20 | 194 | 1.6 | 6.4 | 0.00 | 1.80 | 1.52 | 87 | 1012.8 |
| 20260509220040 | 20 | 194 | 1.6 | 6.4 | 0.00 | 1.80 | 1.52 | 87 | 1013.0 |
| 20260509214539 | 20 | 193 | 1.6 | 6.4 | 0.00 | 2.31 | 1.52 | 87 | 1013.0 |
| 20260509213044 | 20 | 195 | 1.6 | 6.4 | 0.00 | 2.31 | 1.52 | 87 | 1012.9 |
| 20260509211545 | 20 | 121 | 0.0 | 4.8 | 0.00 | 2.31 | 1.52 | 87 | 1012.9 |
| 20260509210041 | 20 | 0 | 1.6 | 4.8 | 0.00 | 2.31 | 1.52 | 87 | 1012.9 |
| 20260509204537 | 20 | 0 | 0.0 | 3.2 | 0.00 | 2.39 | 1.52 | 87 | 1012.5 |
| 20260509203037 | 20 | 0 | 0.0 | 8.0 | 0.00 | 2.39 | 1.52 | 87 | 1012.5 |
| 20260509201544 | 20 | 0 | 0.0 | 4.8 | 0.00 | 2.39 | 1.52 | 87 | 1012.3 |
| 20260509200050 | 20 | 42 | 4.8 | 8.0 | 0.00 | 2.39 | 1.52 | 87 | 1011.9 |
| 20260509194540 | 19 | 0 | 1.6 | 4.8 | 0.00 | 2.59 | 1.52 | 86 | 1012.1 |
| 20260509193042 | 19 | 49 | 4.8 | 6.4 | 0.00 | 2.59 | 1.52 | 86 | 1011.9 |